Location: Unspecified
(0.0000°N, 0.0000°E)
Time: 19:02:54
(UTC+00:00)

Vanguard 3 - Pass Details

Date: 23 November 2019
Orbit: 508 x 3263 km, 33.3° (Epoch: 08 December)

Event Time Altitude Azimuth Distance (km) Brightness Sun altitude
Rises 16:17:51 0° 314° (NW) 7,221 12.3 20.7°
Reaches altitude 10° 16:25:54 10° 332° (NNW) 6,050 11.7 18.8°
Maximum altitude 16:36:40 18° 8° (N) 4,881 10.9 16.3°
Drops below altitude 10° 16:45:24 10° 45° (NE) 4,822 10.6 14.3°
Sets 16:50:31 0° 64° (ENE) 5,312 10.7 13.1°
